Location: Northern Prairie Star Party
(53.2167°N, 112.5333°W)
Time: 10:25:29
(UTC-06:00)

MaSat-1 - Visible Passes

Search period start: 28 July 2014 00:00
Search period end: 07 August 2014 00:00
Orbit: 280 x 763 km, 69.5° (Epoch: 28 July)

Date Brightness Start Highest point End Pass type
(mag) Time Alt. Az. Time Alt. Az. Time Alt. Az.
28 Jul ? 00:09:49 10° WSW 00:14:01 38° NW 00:18:44 10° NNE visible
28 Jul ? 01:49:49 10° NW 01:52:49 16° NNW 01:55:57 10° NNE visible
28 Jul ? 03:29:49 10° NNW 03:32:15 13° N 03:34:45 10° NE visible
28 Jul ? 22:18:46 10° S 22:22:54 46° ESE 22:27:37 10° NE visible
28 Jul ? 23:56:10 10° WSW 00:00:23 38° NW 00:05:08 10° NNE visible
29 Jul ? 01:36:11 10° NW 01:39:11 16° NNW 01:42:21 10° NNE visible
29 Jul ? 03:16:09 10° NNW 03:18:38 13° N 03:21:09 10° NE visible
29 Jul ? 04:53:43 10° NNW 04:57:51 23° NNE 05:02:01 10° E visible
29 Jul ? 22:05:00 10° S 22:09:09 47° ESE 22:13:55 10° NE visible
29 Jul ? 23:42:25 10° WSW 23:46:40 37° NW 23:51:25 10° NNE visible
30 Jul ? 01:22:26 10° NW 01:25:28 16° NNW 01:28:38 10° NNE visible
30 Jul ? 03:02:24 10° NNW 03:04:54 13° N 03:07:26 10° NE visible
30 Jul ? 04:39:57 10° NNW 04:44:06 23° NNE 04:48:17 10° E visible
30 Jul ? 23:28:33 10° WSW 23:32:50 37° NW 23:37:35 10° NNE visible
31 Jul ? 01:08:35 10° NW 01:11:38 16° NNW 01:14:48 10° NNE visible
31 Jul ? 02:48:32 10° NNW 02:51:03 13° N 02:53:37 10° NE visible
31 Jul ? 04:26:06 10° NNW 04:30:16 23° NNE 04:34:26 10° E visible
31 Jul ? 23:14:35 10° WSW 23:18:54 37° NW 23:23:40 10° NNE visible
01 Aug ? 00:54:38 10° NW 00:57:41 16° NNW 01:00:53 10° NNE visible
01 Aug ? 02:34:35 10° NNW 02:37:07 14° N 02:39:41 10° NE visible
01 Aug ? 04:12:08 10° NNW 04:16:19 23° NNE 04:20:29 10° E visible
01 Aug ? 23:00:32 10° WSW 23:04:51 37° NW 23:09:38 10° NNE visible
02 Aug ? 00:40:34 10° NW 00:43:39 16° NNW 00:46:51 10° NNE visible
02 Aug ? 02:20:31 10° NNW 02:23:04 14° N 02:25:39 10° NE visible
02 Aug ? 03:58:04 10° NNW 04:02:15 23° NNE 04:06:25 10° E visible
02 Aug ? 22:46:21 10° WSW 22:50:42 37° NW 22:55:30 10° NNE visible
03 Aug ? 00:26:24 10° NW 00:29:29 16° NNW 00:32:42 10° NNE visible
03 Aug ? 02:06:20 10° NNW 02:08:54 14° N 02:11:30 10° NE visible
03 Aug ? 03:43:54 10° NNW 03:48:05 23° NNE 03:52:15 10° E visible
03 Aug ? 22:32:05 10° WSW 22:36:27 37° NW 22:41:16 10° NNE visible
04 Aug ? 00:12:07 10° NW 00:15:14 16° NNW 00:18:28 10° NNE visible
04 Aug ? 01:52:04 10° NNW 01:54:39 14° N 01:57:15 10° NE visible
04 Aug ? 03:29:38 10° NNW 03:33:49 23° NNE 03:37:59 10° E visible
04 Aug ? 05:06:44 10° NNW 05:12:04 70° NE 05:17:09 10° SE visible
04 Aug ? 22:17:42 10° WSW 22:22:06 37° NW 22:26:56 10° NNE visible
04 Aug ? 23:57:45 10° WNW 00:00:52 16° NNW 00:04:07 10° NNE visible
05 Aug ? 01:37:42 10° NNW 01:40:17 14° N 01:42:53 10° NE visible
05 Aug ? 03:15:16 10° NNW 03:19:27 23° NNE 03:23:36 10° E visible
05 Aug ? 04:52:21 10° NNW 04:57:41 70° NE 05:02:45 10° SE visible
05 Aug ? 22:03:13 10° WSW 22:07:39 37° NW 22:12:29 10° NNE visible
05 Aug ? 23:43:15 10° WNW 23:46:24 16° NNW 23:49:40 10° NNE visible
06 Aug ? 01:23:13 10° NNW 01:25:48 14° N 01:28:25 10° NE visible
06 Aug ? 03:00:47 10° NNW 03:04:59 23° NNE 03:09:06 10° E visible
06 Aug ? 04:37:53 10° NNW 04:43:12 70° NE 04:48:15 10° SE visible
06 Aug ? 21:48:38 10° WSW 21:53:05 38° NW 21:57:56 10° NNE visible
06 Aug ? 23:28:40 10° WNW 23:31:50 16° NNW 23:35:07 10° NNE visible
